{"data":{"norad_id":42991,"intl_designator":"2017-068E","name":"SKYSAT-C7","alt_names":[],"object_type":"PAYLOAD","status":"ACTIVE","operator":null,"country":"US","launch_date":"2017-10-31","launch_site_code":"AFWTR","launch_vehicle":null,"mission":null,"orbit_class":"UNKNOWN","rcs_meters":null,"size_class":null,"mass_kg":null,"dimensions":null,"purposes":["earth_obs"],"wikipedia_slug":null,"has_3d_model":false,"image_url":null,"decayed_at":null,"tle_current":{"epoch":"2026-05-25T03:22:12.205920Z","epoch_age_seconds":69725,"freshness":"FRESH","line1":"1 42991U 17068E   26145.14041905  .00009971  00000+0  28302-3 0  9992","line2":"2 42991  97.4501 282.4763 0006218 176.8504 183.2780 15.36393858478833","mean_motion":15.36393858,"eccentricity":0.0006218,"inclination_deg":97.4501,"raan_deg":282.4763,"arg_perigee_deg":176.8504,"mean_anomaly_deg":183.278,"bstar":0.00028302,"rev_number":47883,"period_min":93.725966977928,"perigee_km":452.53353032325,"apogee_km":461.033437437,"semimajor_km":6834.9204838801,"source":"CELESTRAK","updated_at":"2026-05-25T13:38:13.296794Z"}}}